Location: Sternwarte ZA, Rosenfeld-Brittheim
(48.2889°N, 8.6789°E)
Time: 07:57:37
(UTC+02:00)

ISS - Pass Details

Date: 16 March 2018
Orbit: 402 x 407 km, 51.6° (Epoch: 25 June)

Event Time Altitude Azimuth Distance (km) Brightness Sun altitude
Exits shadow 03:51:17 21° 80° (E) 999 -1.2 -27.2°
Drops below altitude 10° 03:52:32 10° 88° (E) 1,480 -0.2 -27.0°
Enters shadow 04:50:52 -64° 292° (WNW) 11,964 3.6 -18.2°
Maximum altitude 05:25:56 54° 210° (SSW) 506 -3.6 -12.6°
